This is the latest recevied weather packets stored in our database for station/object WC4PEM-9. If no packets are shown the sender has not sent any weather packets the latest 10 day(s).
| Time | Temp. | Humidity | Pressure | Rain* | Wind** | Luminosity | Snow |
|---|---|---|---|---|---|---|---|
| 1778000308 | 28.89° C | 53% | 1015.9 hPa | 0 mm | - | - | - |
| 1778000008 | 28.89° C | 52% | 1016 hPa | 0 mm | - | - | - |
| 1777999708 | 28.33° C | 54% | 1015.8 hPa | 0 mm | - | - | - |
| 1777999408 | 28.33° C | 54% | 1016 hPa | 0 mm | - | - | - |
| 1777999108 | 27.78° C | 57% | 1016 hPa | 0 mm | - | - | - |
| 1777998808 | 27.78° C | 55% | 1015.8 hPa | 0 mm | - | - | - |
| 1777998610 | 28.33° C | 52% | 1015.9 hPa | 0 mm | - | - | - |
| 1777998508 | 28.33° C | 52% | 1015.9 hPa | 0 mm | - | - | - |
| 1777998208 | 28.33° C | 52% | 1016 hPa | 0 mm | - | - | - |
| 1777998057 | 28.33° C | 52% | 1016.1 hPa | 0 mm | - | - | - |
| 1777997908 | 28.33° C | 52% | 1016.1 hPa | 0 mm | - | - | - |
| 1777997608 | 28.33° C | 53% | 1016 hPa | 0 mm | - | - | - |
| 1777997495 | 28.33° C | 51% | 1016.1 hPa | 0 mm | - | - | - |
| 1777997308 | 28.33° C | 51% | 1016.1 hPa | 0 mm | - | - | - |
| 1777997008 | 27.78° C | 53% | 1016.2 hPa | 0 mm | - | - | - |
| 1777996708 | 27.78° C | 55% | 1016.1 hPa | 0 mm | - | - | - |
| 1777996408 | 28.33° C | 54% | 1015.9 hPa | 0 mm | - | - | - |
| 1777996108 | 27.78° C | 54% | 1016.3 hPa | 0 mm | - | - | - |
| 1777995888 | 28.33° C | 55% | 1016.1 hPa | 0 mm | - | - | - |
| 1777995808 | 28.33° C | 55% | 1016.1 hPa | 0 mm | - | - | - |
| 1777995595 | 28.33° C | 55% | 1015.8 hPa | 0 mm | - | - | - |
| 1777995508 | 28.33° C | 55% | 1015.8 hPa | 0 mm | - | - | - |
| 1777995208 | 27.78° C | 58% | 1016.1 hPa | 0 mm | - | - | - |
| 1777994959 | 27.78° C | 58% | 1016.1 hPa | 0 mm | - | - | - |
| 1777994908 | 27.78° C | 58% | 1016.1 hPa | 0 mm | - | - | - |
* Rain latest hour (hover to see other rain measurements)
** Current wind speed in m/s (hover to see current wind gust speed)